Simultaneous Nadir Overpasses (SNOs) Predictions

Prediction of SNOs between METOP-A and TERRA Satellite Orbit:

Table of predicted SNOs for the next 14.0 days since TLE Epoch: 10/12/2019
Index Date (METOP-A) Time (METOP-A) Lat,Lon (METOP-A) SZA (METOP-A ) Date (TERRA) Time (TERRA) Lat,Lon (TERRA) SZA (TERRA ) Distance(km) Time Diff (sec)
1 10/14/2019 20:03:20 -81.45, 108.64 86.96 10/14/2019 20:03:49 -81.44, 108.77 86.94 2.22 29
2 10/14/2019 20:53:59 81.44, -83.27 93.14 10/14/2019 20:53:15 81.45, -83.45 93.10 3.28 44
3 10/17/2019 15:37:44 -81.45, 175.06 85.91 10/17/2019 15:38:04 -81.44, 175.09 85.91 1.35 20
4 10/17/2019 16:28:24 81.45, -17.26 94.14 10/17/2019 16:27:30 81.44, -17.16 94.13 1.66 54
5 10/20/2019 11:12:06 -81.44,-118.15 84.84 10/20/2019 11:12:17 -81.45,-118.24 84.84 1.56 11
6 10/20/2019 12:02:47 81.45, 49.12 95.17 10/20/2019 12:01:44 81.44, 49.08 95.13 1.23 63
7 10/23/2019 05:56:01 81.48, 136.16 95.64 10/23/2019 05:57:14 81.26, 136.93 95.61 27.61 73
8 10/23/2019 06:46:31 -81.45, -52.17 83.88 10/23/2019 06:46:32 -81.44, -52.00 83.87 3.07 1
9 10/23/2019 07:37:10 81.44, 115.88 96.21 10/23/2019 07:35:58 81.44, 115.68 96.16 3.26 72
10 10/26/2019 01:30:14 81.45,-153.08 97.09 10/26/2019 01:31:19 81.45,-153.05 97.13 0.46 65




NCC Satellite Simultaneous Nadir Overpasses (SNOs) Prediction Service
